Change the Weather History Date:

Saturday, February 2, 2013

  Actual Average Record
Temperature  
Mean Temperature 50 °F -  
Max Temperature 56 °F 55 °F 60 °F (2007)
Min Temperature 44 °F 38 °F 26 °F (1999)
Degree Days  
Heating Degree Days 15    
Moisture  
Dew Point 46 °F    
Average Humidity 81    
Maximum Humidity 100    
Minimum Humidity 56    
Precipitation  
Precipitation 0.31 in 0.09 in - ()
Sea Level Pressure  
Sea Level Pressure 29.40 in    
Wind  
Wind Speed 10 mph ()    
Max Wind Speed 25 mph    
Max Gust Speed -    
Visibility 5.9 miles    
Events Rain    
Averages and records for this station are not official NWS values.
T = Trace of Precipitation, MM = Missing Value Source: Averaged Metar Reports

Daily Weather History Graph

Daily Weather History Graph

Search for Another Location

Airport or City:

Trip Planner

Search our weather history database for the weather conditions in past years. The results will help you decide how hot, cold, wet, or windy it might be!

Date:

Astronomy

Feb. 02, 2013 Rise Set
Actual Time 7:36 AM CET 5:41 PM CET
Civil Twilight 7:06 AM CET 6:10 PM CET
Nautical Twilight 6:33 AM CET 6:44 PM CET
Astronomical Twilight 6:00 AM CET 7:16 PM CET
Moon No Moon Rise 10:29 AM CET (2/2)
Length of Visible Light 11h 03m
Length of Day
10h 04m
Waning Gibbous, 62% of the Moon is Illuminated
Feb 2
Waning Gibbous
Feb 3
Last Quarter
Feb 10
New
Feb 17
First Quarter
Feb 25
Full

Hourly Weather History & Observations

Time (CET) Temp. Windchill Dew Point Humidity Pressure Visibility Wind Dir Wind Speed Gust Speed Precip Events Conditions
12:00 AM 51.8 °F - 50.0 °F 94% 29.71 in 6.2 mi ENE 4.6 mph - N/A   Mostly Cloudy
12:30 AM 53.6 °F - 50.0 °F 88% 29.71 in 6.2 mi ESE 4.6 mph - N/A   Overcast
1:00 AM 53 °F - 50 °F 87% 29.69 in 16 mi East 4.6 mph - -   Clear
1:00 AM 53.6 °F - 50.0 °F 88% 29.68 in 6.2 mi East 4.6 mph - N/A   Overcast
1:30 AM 53.6 °F - 50.0 °F 88% 29.65 in 6.2 mi ESE 4.6 mph - N/A   Mostly Cloudy
2:00 AM 53.6 °F - 50.0 °F 88% 29.62 in 6.2 mi East 5.8 mph - N/A   Mostly Cloudy
2:30 AM 53.6 °F - 50.0 °F 88% 29.62 in 6.2 mi East 6.9 mph - N/A   Overcast
3:00 AM 53.6 °F - 50.0 °F 88% 29.59 in 6.2 mi ESE 6.9 mph - N/A   Mostly Cloudy
3:30 AM 53.6 °F - 50.0 °F 88% 29.56 in 6.2 mi ESE 5.8 mph - N/A   Mostly Cloudy
4:00 AM 53.6 °F - 51.8 °F 94% 29.53 in 6.2 mi SSE 5.8 mph - N/A   Mostly Cloudy
4:30 AM 55.4 °F - 51.8 °F 88% 29.50 in 6.2 mi SSE 5.8 mph - N/A   Overcast
5:00 AM 55.4 °F - 53.6 °F 94% 29.50 in 5.0 mi SSW 12.7 mph - N/A   Overcast
5:30 AM 55.4 °F - 53.6 °F 94% 29.47 in 5.6 mi South 13.8 mph - N/A   Overcast
6:00 AM 55.4 °F - 53.6 °F 94% 29.44 in 6.2 mi SSW 15.0 mph - N/A   Mostly Cloudy
6:30 AM 55.4 °F - 53.6 °F 94% 29.44 in 5.6 mi SSW 18.4 mph - N/A   Mostly Cloudy
7:00 AM 56 °F - 53 °F 87% 29.42 in 5 mi SSW 18.4 mph - - Rain Light Rain
7:00 AM 55.4 °F - 53.6 °F 94% 29.42 in 5.0 mi SSW 18.4 mph - N/A   Mostly Cloudy
7:30 AM 55.4 °F - 53.6 °F 94% 29.39 in 5.0 mi SSW 18.4 mph - N/A   Mostly Cloudy
8:00 AM 55.4 °F - 53.6 °F 94% 29.36 in 5.0 mi SSW 23.0 mph - N/A   Mostly Cloudy
8:30 AM 55.4 °F - 53.6 °F 94% 29.36 in 5.0 mi SW 25.3 mph - N/A   Mostly Cloudy
9:00 AM 51.8 °F - 48.2 °F 88% 29.36 in 3.1 mi WNW 16.1 mph - N/A Rain Light Rain Showers
9:30 AM 51.8 °F - 48.2 °F 88% 29.36 in 6.2 mi WNW 10.4 mph - N/A Rain Light Rain
10:00 AM 51.8 °F - 48.2 °F 88% 29.36 in 6.2 mi SW 10.4 mph - N/A Rain Light Rain
10:30 AM 51.8 °F - 50.0 °F 94% 29.36 in 1.2 mi SSW 8.1 mph - N/A Rain Light Rain
11:00 AM 51.8 °F - 50.0 °F 94% 29.36 in 2.5 mi WSW 17.3 mph - N/A Rain Light Rain
11:30 AM 51.8 °F - 51.8 °F 100% 29.33 in 1.9 mi WSW 24.2 mph - N/A Rain Light Rain
12:00 PM 53.6 °F - 50.0 °F 88% 29.33 in 5.0 mi WSW 20.7 mph - N/A Rain Light Rain
12:30 PM 53.6 °F - 46.4 °F 77% 29.33 in 6.2 mi West 21.9 mph - N/A Rain Light Rain
1:00 PM 52 °F - 45 °F 70% 29.35 in 6 mi West 10.4 mph - - Rain Light Rain
1:00 PM 51.8 °F - 44.6 °F 76% 29.33 in 6.2 mi West 12.7 mph - N/A Rain Light Rain
1:30 PM 51.8 °F - 44.6 °F 76% 29.33 in 6.2 mi Calm Calm - N/A   Mostly Cloudy
2:00 PM 51.8 °F - 42.8 °F 71% 29.33 in 5.0 mi West 18.4 mph - N/A Rain Light Rain
2:30 PM 51.8 °F - 42.8 °F 71% 29.33 in 6.2 mi West 18.4 mph - N/A Rain Light Rain
3:00 PM 51.8 °F - 41.0 °F 67% 29.33 in 6.2 mi West 19.6 mph - N/A   Mostly Cloudy
3:30 PM 51.8 °F - 39.2 °F 62% 29.33 in 6.2 mi West 16.1 mph - N/A   Mostly Cloudy
4:00 PM 51.8 °F - 39.2 °F 62% 29.33 in 6.2 mi West 23.0 mph - N/A   Mostly Cloudy
4:30 PM 51.8 °F - 41.0 °F 67% 29.30 in 6.2 mi WSW 23.0 mph - N/A   Mostly Cloudy
5:00 PM 51.8 °F - 39.2 °F 62% 29.30 in 6.2 mi WSW 21.9 mph - N/A   Mostly Cloudy
5:30 PM 51.8 °F - 37.4 °F 58% 29.27 in 6.2 mi WSW 19.6 mph - N/A   Mostly Cloudy
6:00 PM 51.8 °F - 37.4 °F 58% 29.27 in 6.2 mi West 16.1 mph - N/A   Mostly Cloudy
6:30 PM 51.8 °F - 37.4 °F 58% 29.27 in 6.2 mi West 16.1 mph - N/A   Mostly Cloudy
7:00 PM 51 °F - 40 °F 56% 29.28 in 6 mi West 17.3 mph - - Rain Light Rain Showers
7:00 PM 51.8 °F - 41.0 °F 67% 29.27 in 6.2 mi West 17.3 mph - N/A   Mostly Cloudy
7:30 PM 51.8 °F - 39.2 °F 62% 29.27 in 6.2 mi West 13.8 mph - N/A   Mostly Cloudy
8:00 PM 48.2 °F - 41.0 °F 76% 29.27 in 6.2 mi Variable 5.8 mph - N/A   Mostly Cloudy
8:30 PM 46.4 °F 41.9 °F 41.0 °F 81% 29.27 in 6.2 mi NNE 9.2 mph - N/A   Scattered Clouds
9:00 PM 44.6 °F 38.4 °F 41.0 °F 87% 29.27 in 6.2 mi NNE 12.7 mph - N/A   Mostly Cloudy
9:30 PM 44.6 °F 39.2 °F 39.2 °F 81% 29.27 in 6.2 mi NE 10.4 mph - N/A   Scattered Clouds
10:00 PM 44.6 °F 39.7 °F 39.2 °F 81% 29.27 in 6.2 mi NE 9.2 mph - N/A   Scattered Clouds
10:30 PM 46.4 °F 44.3 °F 39.2 °F 76% 29.30 in 6.2 mi North 4.6 mph - N/A   Mostly Cloudy
11:00 PM 46.4 °F 44.3 °F 41.0 °F 81% 29.30 in 6.2 mi North 4.6 mph - N/A   Mostly Cloudy
11:30 PM 46.4 °F - 41.0 °F 81% 29.33 in 6.2 mi Variable 2.3 mph - N/A   Mostly Cloudy